Regional Weather Roundup
Issued by NWS Memphis, TN

Home | Current Version | Previous Version | Text Only | Print | Product List | Glossary On
Versions: 1 2 3 4 5 6 7 8 9 10 11 12 13 14 15 16 17 18 19 20 21 22 23 24 25 26 27 28 29 30 31 32 33 34 35 36 37 38 39 40 41 42 43 44 45 46 47 48 49 50
000
ASUS44 KMEG 180110
RWRMEG
MEMPHIS CWA HOURLY WEATHER ROUNDUP
NATIONAL WEATHER SERVICE MEMPHIS TN
800 PM CDT THU AUG 17 2017

...WEST TENNESSEE...

CITY           SKY/WX    TMP DP  RH WIND       PRES   REMARKS
MEMPHIS INTL   MOCLDY    79  77  94 SW6       29.94R
NWS MEMPHIS      N/A     78 N/A N/A MISG        N/A
JACKSON        CLOUDY    77  76  96 S6        29.92F
COVINGTON      CLEAR     79  77  94 CALM      29.92R
SOMERVILLE     PTCLDY    75  75 100 S5        29.92F
LEXINGTON      CLEAR     75  73  94 S5        29.94S
SELMER         PTCLDY    75  73  94 CALM      29.94S
SAVANNAH       CLOUDY    75  73  94 SW6       29.93F
DYERSBURG      PTCLDY    79  75  87 CALM      29.92R
UNION CITY     CLEAR     79  73  83 SW3       29.90R
PARIS          CLEAR     77  77 100 CALM      29.90S
HUNTINGDON     PTCLDY    79  75  89 SW5       29.91S


...EASTERN ARKANSAS...

CITY           SKY/WX    TMP DP  RH WIND       PRES   REMARKS
JONESBORO      CLOUDY    80  75  84 W5        29.92R
WEST MEMPHIS   MOCLDY    80  75  84 CALM      29.92R
BATESVILLE     MOCLDY    79  72  78 CALM      29.94R
NEWPORT        MOCLDY    81  75  82 W5        29.93R
WALNUT RIDGE   CLOUDY    81  72  74 SW7       29.91R
BLYTHEVILLE    MOCLDY    80  74  81 W3        29.91R
SEARCY           N/A    N/A N/A N/A MISG        N/A
PINE BLUFF     CLEAR     80  73  79 SW6       29.96S
MONTICELLO     CLOUDY    81  72  74 W6        29.98R


...NORTH MISSISSIPPI...

CITY           SKY/WX    TMP DP  RH WIND       PRES   REMARKS
TUPELO         CLOUDY    80  74  81 SW5       29.95R
OXFORD           N/A    N/A N/A N/A MISG        N/A
BATESVILLE     CLEAR     82  73  76 W5        29.95R
OLIVE BRANCH   MOCLDY   N/A N/A N/A CALM      29.93S
TUNICA           N/A     77  73  88 W3        29.94S
CLARKSDALE       N/A     81  79  94 W5        29.94F
GREENWOOD      CLOUDY    78  76  93 SW5       29.96S
COLUMBUS       PTCLDY    79  77  92 S6        29.96S
STARKVILLE     PTCLDY    77  75  94 CALM      29.97F
GOLDEN TRIANGL CLEAR     81  90 100 S7        29.92S HX  91


...SOUTHEAST MISSOURI...

CITY           SKY/WX    TMP DP  RH WIND       PRES   REMARKS
KENNETT        PTCLDY    81  75  83 W6        29.89S
MALDEN         MOCLDY    81  73  78 SW6       29.91R
WEST PLAINS    CLOUDY    77  68  73 W5        29.96S
POPLAR BLUFF   MOCLDY    79  76  90 SW3       29.89R
CAPE GIRARDEAU CLOUDY    77  73  87 SW7       29.87S


...NORTHWEST ALABAMA...

CITY           SKY/WX    TMP DP  RH WIND       PRES   REMARKS
MUSCLE SHOALS  MOCLDY    82  75  79 SW9       29.96S


...MIDDLE TENNESSEE...

CITY           SKY/WX    TMP DP  RH WIND       PRES   REMARKS
NASHVILLE      MOCLDY    82  73  74 S9        29.93F
CLARKSVILLE    CLOUDY    78  74  87 SW7       29.91S
COLUMBIA       PTCLDY    81  79  94 CALM      29.92F


...WESTERN KENTUCKY...

CITY           SKY/WX    TMP DP  RH WIND       PRES   REMARKS
PADUCAH        PTCLDY    79  71  76 SW5       29.89R
FORT CAMPBELL  DRIZZLE   79  75  89 SW9       29.91R


...CENTRAL ARKANSAS...

CITY           SKY/WX    TMP DP  RH WIND       PRES   REMARKS
LITTLE ROCK    MOCLDY    82  72  71 W7        29.96R


SKY/WX REPORTED AS FAIR MEANS FEW OR NO CLOUDS BELOW
12 THOUSAND FEET.




USA.gov is the U.S. government's official web portal to all federal, state and local government web resources and services.